Theta_e
331 331 324 317 307 308 307 309 315 314 315 320 319 319 317 320 321 325 350 356 357 362 366 362 363 364 365 365 365 363 363 361 361 362 362 361 360 361 362 363 363 363 360 358 359 359 358 357 355
328 321 318 314 303 304 307 313 311 315 319 319 319 319 318 319 335 342 349 355 360 364 366 361 363 363 364 364 364 363 363 363 362 361 361 360 360 361 362 363 363 361 359 357 356 356 356 354 354
324 318 311 307 305 302 307 314 314 316 319 318 316 319 319 323 341 343 355 357 360 365 366 364 363 363 363 363 363 362 362 362 361 361 361 360 361 361 361 362 362 360 357 356 355 354 354 354 354
316 314 311 304 304 309 311 315 312 313 316 318 317 314 320 339 341 349 357 358 361 363 364 364 362 362 361 362 362 361 361 361 360 361 360 360 361 361 361 361 361 361 358 357 355 353 353 353 353
317 312 304 302 304 310 314 313 312 312 313 314 314 313 316 327 344 351 356 357 359 360 363 364 362 361 361 361 361 360 359 359 359 359 360 360 360 360 360 361 361 360 357 356 354 353 353 353 352
309 310 301 301 305 309 313 314 312 312 314 314 312 313 316 344 347 353 356 357 358 357 362 363 362 361 360 360 359 358 357 358 358 358 359 359 359 360 360 360 360 359 357 354 352 352 351 351 350
307 306 301 303 305 308 311 313 309 310 311 312 315 310 316 333 346 354 357 356 355 357 361 362 359 361 360 359 357 357 356 356 356 357 358 358 359 359 360 360 359 357 356 354 352 351 349 349 348
311 308 303 304 303 305 311 309 310 309 309 315 315 309 312 320 344 354 355 354 353 356 358 360 358 355 354 357 358 356 356 356 356 357 358 358 359 359 359 357 358 356 353 352 350 349 348 348 347
313 304 301 303 303 305 308 307 311 312 310 311 313 314 317 329 344 348 351 351 352 353 357 359 358 356 352 351 355 357 357 356 356 356 357 354 350 353 355 355 356 354 353 352 350 349 349 348 348
306 302 303 309 309 307 308 308 309 308 308 309 311 315 319 335 341 342 348 348 349 351 354 357 360 356 353 350 354 351 351 349 348 348 352 348 352 352 349 355 354 353 353 352 351 350 349 346 344
304 300 305 308 310 311 308 308 309 307 306 311 310 313 320 331 337 340 345 350 351 353 354 356 361 360 354 351 351 350 350 351 350 350 350 351 352 354 352 351 350 350 351 348 348 349 348 344 347
299 303 304 306 308 309 307 310 308 309 309 313 314 315 315 325 331 336 343 347 352 353 355 358 361 360 359 353 351 351 350 352 351 351 352 351 349 351 348 346 347 349 346 348 347 347 351 352 352
302 303 304 305 305 305 308 307 307 309 312 314 315 315 315 317 325 334 341 348 353 353 355 357 361 361 359 357 353 352 351 353 353 352 353 351 347 348 348 348 347 347 350 350 351 351 353 353 353
303 303 304 305 305 305 303 303 305 307 312 312 314 314 316 316 318 321 327 339 351 355 356 354 356 359 360 359 358 354 354 354 353 351 351 351 348 349 345 348 346 351 351 353 354 355 357 356 356
303 298 301 302 303 303 305 301 301 306 309 309 311 314 315 316 318 319 321 328 346 355 356 354 355 358 360 359 357 356 354 353 352 350 354 352 351 352 348 345 349 352 356 359 360 359 359 356 354
299 300 295 301 302 303 303 296 305 309 308 306 308 310 313 315 316 318 321 324 344 352 356 353 355 358 359 359 358 355 354 353 352 351 352 353 351 352 349 346 351 355 356 355 357 358 356 355 353
299 293 295 297 303 302 302 298 305 308 308 308 309 310 311 313 317 320 322 325 340 353 357 352 356 356 358 359 358 358 359 353 351 352 351 353 352 351 348 347 353 359 357 356 356 356 356 353 351
292 293 294 294 299 301 300 300 303 307 307 308 309 312 313 313 315 318 322 331 345 353 359 353 356 359 358 357 357 354 354 354 351 349 348 354 351 350 355 354 359 360 359 355 354 355 352 349 345
296 294 293 296 299 298 298 300 302 306 307 308 309 310 313 315 318 319 322 334 347 354 356 353 357 361 353 352 350 349 348 350 349 349 353 354 352 350 355 354 357 358 358 355 354 349 345 345 344
296 293 293 296 298 297 297 297 302 304 305 307 309 310 312 315 317 318 324 342 350 352 353 355 355 359 352 352 352 350 349 349 349 350 354 355 352 351 351 357 356 358 352 348 348 348 342 342 342
295 293 292 292 295 297 295 294 297 302 305 307 308 310 313 314 316 319 322 344 352 351 352 355 357 358 353 358 353 351 351 350 346 348 349 351 352 351 354 356 355 352 348 343 345 342 341 340 338
292 297 295 293 291 287 295 285 295 299 301 304 307 309 311 314 316 318 323 338 350 353 356 357 357 358 356 358 355 356 346 344 345 348 348 351 353 354 354 354 349 341 341 339 340 340 339 337 331
294 298 295 293 291 290 290 286 292 298 297 301 306 309 311 314 316 317 319 332 345 352 356 358 358 356 355 357 357 350 351 346 347 347 355 356 354 350 350 347 339 336 339 341 340 339 338 336 333
300 295 294 295 290 284 289 287 289 294 298 302 306 308 311 313 315 317 320 332 340 347 352 357 357 355 355 354 353 356 356 353 347 346 341 343 344 341 340 335 335 337 341 339 336 337 337 335 334
297 292 285 283 283 282 289 287 291 298 301 303 305 307 310 313 315 316 318 325 338 343 349 354 355 352 354 354 352 352 353 353 346 341 338 336 337 334 333 335 335 338 340 337 337 337 336 334 333
293 292 285 278 280 283 290 285 291 299 302 304 306 308 311 313 314 315 319 325 334 342 347 350 353 353 353 353 352 353 357 350 343 339 338 337 337 335 335 332 334 334 334 333 335 333 332 332 329
292 290 295 287 289 284 287 291 296 299 299 302 304 307 309 312 313 315 318 325 330 341 346 348 352 353 353 354 354 355 350 340 338 337 338 336 336 331 330 330 327 329 330 330 331 328 327 328 327
295 297 288 288 279 279 285 287 288 293 297 300 302 304 308 311 311 314 315 321 329 337 345 349 350 349 348 351 351 346 341 339 337 340 339 339 337 335 328 327 324 324 325 325 326 324 324 321 320
293 291 290 291 289 282 281 286 296 297 300 300 302 305 307 310 311 313 315 317 326 333 339 346 346 343 345 346 341 337 338 338 340 340 339 336 335 329 325 319 320 321 321 320 319 319 318 319 319
295 292 293 286 285 289 287 287 301 301 302 303 303 305 307 309 311 312 314 317 322 330 336 343 343 343 341 337 335 333 335 338 337 334 333 332 330 324 317 317 318 318 318 318 318 318 318 317 315
Wind_Speed
8 9 5 6 8 7 13 13 12 8 8 5 0 5 9 9 8 6 4 10 18 21 21 21 18 17 16 17 17 18 19 20 19 19 18 16 16 15 14 13 12 11 12 12 11 11 10 10 10
7 6 6 4 10 14 14 16 16 13 7 2 5 10 9 8 5 8 10 11 20 20 19 21 18 18 16 16 16 18 19 19 19 18 18 17 17 16 15 13 12 12 12 12 11 11 10 10 9
7 7 7 6 11 17 18 14 8 10 9 6 4 3 6 2 5 3 6 17 23 21 20 20 19 18 18 17 17 18 20 19 19 19 18 17 16 16 15 13 13 12 13 12 11 10 10 9 9
7 6 6 12 21 21 21 14 2 7 12 10 7 9 4 7 4 3 14 20 22 22 21 22 20 19 19 19 19 19 20 20 19 19 18 17 16 15 14 12 11 11 11 10 9 8 8 7 7
7 5 13 18 25 27 19 13 4 9 2 5 4 7 5 4 3 6 15 19 22 22 21 22 20 20 20 20 19 20 21 20 19 19 18 18 16 14 13 11 11 10 10 9 8 7 7 7 6
9 7 15 22 26 26 20 15 13 14 11 8 8 12 11 4 2 7 14 18 21 21 21 22 19 20 20 18 19 19 20 20 20 19 19 18 16 14 13 11 10 9 10 9 8 7 7 6 6
18 13 21 26 25 26 19 14 15 17 20 19 12 14 3 6 3 8 13 17 20 20 20 20 20 19 20 19 19 19 20 19 19 19 18 17 16 14 12 10 10 9 9 8 7 7 7 6 5
13 16 26 24 24 28 18 10 14 16 21 15 11 11 13 8 6 9 13 17 19 19 20 21 20 20 19 17 18 19 19 19 18 17 17 16 14 12 11 10 9 9 9 8 7 6 6 6 4
12 15 20 26 26 19 5 13 14 12 14 10 13 19 3 1 9 11 13 16 18 18 19 20 21 20 19 19 16 17 19 18 17 16 15 13 11 13 13 8 11 9 8 7 6 5 5 5 6
16 17 28 20 19 19 19 18 18 12 13 14 15 14 7 8 11 12 15 17 20 21 21 19 19 20 18 14 17 16 15 13 13 14 15 11 11 11 10 11 10 9 8 7 6 5 6 10 5
18 27 21 19 16 16 21 22 17 18 21 18 16 16 13 11 10 13 16 19 21 20 17 19 18 17 18 15 13 10 9 9 10 14 14 11 10 9 8 8 8 9 9 8 10 9 8 1 3
25 23 21 24 24 18 21 19 22 23 24 17 14 15 7 12 12 12 15 17 20 20 20 19 19 18 17 13 13 12 11 10 9 11 14 9 8 9 8 6 8 6 7 5 5 4 3 3 3
22 22 23 19 15 20 24 26 23 27 21 21 23 19 14 15 13 12 11 14 17 21 20 18 17 16 16 14 13 12 11 10 11 11 13 10 9 8 8 7 7 6 6 7 5 4 3 4 4
14 16 15 17 20 21 26 27 23 32 23 23 22 21 22 20 18 15 14 14 18 20 19 18 18 17 17 14 14 11 10 11 10 10 11 11 9 8 8 8 7 6 5 6 4 4 2 2 3
15 19 20 23 23 24 21 27 37 26 21 21 21 26 27 25 23 22 18 17 18 17 18 17 19 19 18 16 14 12 11 11 10 9 11 12 9 9 9 8 8 5 5 4 4 3 2 3 3
19 19 19 17 23 21 24 36 31 26 28 27 25 24 24 25 25 24 20 21 19 20 21 18 18 22 19 16 14 11 11 10 10 9 9 12 10 11 8 7 6 5 4 4 3 3 2 2 2
16 17 21 19 14 14 22 32 24 27 25 19 20 24 25 24 22 20 22 21 19 21 22 19 23 22 20 17 13 12 12 10 9 9 10 12 12 10 8 7 6 5 5 4 4 2 2 2 3
17 18 19 19 15 22 22 27 21 21 7 14 19 18 19 23 25 22 21 19 19 21 19 20 20 19 19 14 11 11 10 10 9 10 9 13 9 10 9 6 6 5 4 4 3 2 2 2 3
22 23 24 21 18 21 25 24 21 17 18 20 18 18 18 18 19 21 19 19 20 20 18 21 22 19 13 14 14 12 11 10 9 9 11 12 10 12 9 7 7 4 5 4 5 3 2 1 2
25 24 27 21 21 19 26 30 26 21 22 20 19 18 18 17 16 18 16 19 20 19 19 22 22 20 16 13 12 10 10 10 10 9 10 11 12 11 9 6 6 4 6 5 4 3 2 1 2
23 22 22 23 21 20 21 30 29 27 24 22 24 23 22 20 16 16 17 20 19 20 22 24 23 22 20 16 11 10 9 9 10 11 10 8 9 10 8 8 6 5 3 4 3 3 2 1 3
19 15 20 20 19 16 19 22 27 27 29 29 25 24 25 21 17 15 16 20 22 22 25 24 23 21 20 18 15 14 13 12 11 10 10 10 11 11 10 10 8 6 5 3 3 3 1 2 1
16 16 16 18 22 23 26 20 19 24 28 28 22 24 26 21 19 18 18 20 22 23 22 22 21 22 21 20 16 14 13 10 10 10 12 9 8 11 11 10 8 7 5 4 4 3 4 1 3
14 13 17 18 17 18 24 24 21 21 23 24 20 22 22 22 20 17 16 19 19 19 20 20 23 22 21 21 18 17 14 12 11 10 8 8 7 7 12 10 6 8 7 5 3 4 4 4 4
9 10 8 11 13 17 18 15 17 19 20 21 22 16 19 19 18 18 17 19 20 21 21 21 23 22 22 21 19 18 15 14 15 12 10 10 9 8 9 9 8 9 6 4 5 5 4 4 4
11 8 9 13 13 13 11 16 18 21 23 19 17 24 17 16 16 16 16 17 20 21 21 21 22 22 22 21 19 17 16 11 9 11 12 9 10 11 11 9 7 11 6 4 4 4 3 4 5
12 17 17 20 24 18 16 20 13 19 21 22 20 17 17 16 12 12 10 12 17 20 21 21 22 20 19 17 15 15 16 15 14 16 14 12 15 12 11 13 8 10 8 4 3 4 4 4 5
18 9 7 5 7 10 11 15 11 6 16 22 22 23 21 15 14 12 9 10 12 15 18 19 19 16 15 16 14 14 16 17 17 16 18 17 16 16 14 13 10 11 8 7 5 5 5 5 4
8 10 6 10 10 10 12 5 8 4 12 9 21 24 22 20 17 13 11 9 11 14 16 17 16 17 15 15 17 18 17 17 16 17 16 17 16 15 15 12 12 13 9 7 6 6 5 6 6
17 18 15 8 12 10 10 9 11 10 6 6 5 13 17 17 17 16 13 9 10 14 16 17 16 17 16 18 18 17 18 17 16 14 16 17 16 15 13 12 14 13 10 8 6 6 6 7 7
Wind_Direction
229 214 237 235 242 235 255 244 247 229 231 213 230 251 330 311 295 14 112 155 148 147 152 159 151 148 147 145 145 147 143 141 142 143 144 143 141 137 133 129 126 125 126 127 126 125 126 127 127
194 189 215 249 251 242 247 236 232 246 224 178 242 239 251 295 345 102 147 163 152 146 154 161 155 149 148 144 145 145 140 138 140 141 140 144 144 140 137 134 135 138 138 136 134 135 134 133 134
201 229 244 229 238 244 254 256 238 250 230 204 264 270 308 340 82 88 89 162 158 154 162 154 158 151 147 146 146 145 139 140 141 143 144 145 142 140 141 144 145 146 145 142 139 140 142 142 138
182 190 234 242 243 240 257 274 335 251 242 253 270 260 225 46 355 52 145 160 155 158 164 146 158 152 150 149 152 147 142 143 143 144 143 143 143 145 146 147 147 147 145 141 138 138 133 127 123
214 235 239 231 245 252 248 276 261 243 222 208 194 241 264 103 3 141 158 164 166 163 161 159 159 154 153 154 153 148 145 144 144 144 145 147 148 148 146 147 146 146 143 137 135 132 125 123 123
206 252 235 237 240 244 245 237 244 252 239 254 258 254 262 75 168 163 168 174 171 165 157 157 159 155 152 155 151 149 146 146 147 149 152 151 150 150 150 150 145 141 138 137 134 129 126 131 138
241 218 246 254 254 252 241 204 235 251 251 241 256 267 269 199 146 175 176 180 173 166 161 160 167 158 153 156 155 153 149 150 150 153 152 153 152 153 149 142 138 141 135 132 132 134 134 137 143
235 255 251 247 251 254 264 226 261 248 254 262 239 245 244 229 174 176 180 179 175 169 168 168 168 169 167 161 158 155 152 152 152 152 151 152 149 147 142 134 139 138 133 134 138 138 145 141 145
241 242 243 245 248 244 236 281 245 251 265 222 219 248 288 332 178 176 177 181 178 176 170 174 170 173 177 166 160 155 153 153 150 152 150 149 168 170 158 119 133 138 138 138 139 143 152 165 173
220 231 248 262 263 260 249 245 249 236 227 236 234 241 215 185 187 185 187 188 187 183 178 177 173 177 176 166 160 167 158 164 167 169 166 176 159 176 179 128 140 144 149 148 155 160 188 218 198
229 248 255 252 275 281 267 261 239 257 244 241 228 218 207 214 202 205 198 196 193 187 180 179 176 179 176 171 170 169 168 163 167 172 176 181 171 162 169 155 166 164 183 184 190 180 215 127 301
247 256 267 271 278 272 254 269 259 253 253 259 234 256 246 218 219 215 209 201 193 187 185 183 177 182 184 172 181 173 174 170 173 176 184 169 188 176 179 173 165 177 176 146 205 167 119 207 211
247 255 261 273 266 269 267 265 266 260 253 257 266 249 229 246 235 218 223 215 198 189 189 185 174 185 186 177 185 180 180 180 181 175 183 178 189 183 180 166 183 189 161 172 176 155 184 190 213
276 282 273 269 263 265 264 263 266 252 251 255 256 250 247 234 231 234 235 222 211 198 183 186 171 192 184 182 186 184 187 179 186 179 177 185 196 180 177 168 181 180 174 149 180 146 197 249 293
270 274 266 257 251 252 258 260 249 252 259 248 242 242 250 249 239 237 231 226 210 207 167 187 175 192 184 186 185 190 180 181 185 182 172 190 200 178 179 177 186 168 161 160 185 178 197 246 241
259 260 270 266 241 243 231 256 251 248 239 238 237 243 246 242 239 232 225 228 211 206 175 177 190 186 184 188 188 191 176 187 183 181 172 184 184 176 190 178 167 164 180 183 167 190 195 267 279
237 261 276 285 272 264 251 252 258 258 258 246 235 236 237 240 232 223 217 216 209 198 183 177 196 184 184 188 190 193 173 194 180 177 174 179 176 166 198 184 155 171 188 177 134 163 269 184 265
294 291 280 275 264 268 253 262 240 256 239 269 232 237 234 236 235 220 218 214 196 193 176 181 193 184 180 180 193 191 175 194 179 181 178 169 169 166 187 156 142 197 189 149 133 146 94 334 319
273 276 274 275 283 270 264 261 257 257 264 256 256 245 245 235 235 227 214 203 188 188 173 181 188 181 165 186 191 188 185 185 181 174 166 173 168 176 173 173 152 186 179 114 135 146 156 145 310
264 260 262 273 272 269 275 262 255 242 245 251 255 254 247 241 227 219 217 194 184 177 178 181 186 176 176 193 193 188 186 182 174 168 170 174 172 171 177 153 157 164 131 126 140 195 198 147 19
249 250 263 273 283 269 264 270 256 249 245 251 252 249 250 246 237 207 209 190 178 180 181 185 185 176 181 193 181 179 176 175 178 168 170 160 161 164 155 149 119 113 106 120 134 146 247 185 70
260 245 262 268 270 269 252 259 255 238 240 243 239 241 240 233 227 237 197 200 188 186 189 187 182 177 182 185 179 177 177 181 180 170 162 154 150 147 134 123 115 102 69 96 106 38 27 340 130
276 275 265 277 274 272 263 256 261 253 233 237 234 230 234 230 224 214 211 198 194 190 191 185 178 179 180 184 181 174 191 181 167 162 126 126 113 120 121 119 115 104 107 22 78 88 45 98 320
269 261 256 264 265 262 263 259 255 250 243 237 227 235 237 227 224 216 210 191 195 192 192 180 179 180 180 179 184 183 185 175 151 131 134 117 104 98 104 104 109 89 91 125 124 85 72 40 26
233 247 261 250 233 255 263 248 253 261 239 236 221 228 232 223 213 216 206 194 186 188 190 181 180 178 177 178 183 178 175 141 146 143 128 125 114 107 111 118 113 106 101 135 123 103 103 71 55
276 263 254 280 278 282 299 249 243 235 265 262 239 228 211 195 205 209 204 196 185 182 184 184 179 176 177 176 176 173 156 143 132 127 128 125 125 127 124 103 97 85 109 89 102 114 83 89 76
260 242 255 269 266 271 267 277 263 251 237 234 239 229 198 183 189 188 196 202 192 174 179 179 176 178 176 166 163 165 128 127 133 125 122 132 130 123 122 109 100 89 98 118 126 106 115 87 55
243 271 261 220 267 260 248 266 285 312 229 226 221 223 215 208 202 195 194 184 197 180 170 171 172 165 160 153 148 128 129 128 130 134 136 140 135 132 126 118 121 109 110 112 140 134 94 80 59
210 219 237 276 256 272 292 304 304 52 327 241 218 215 217 206 201 198 186 182 183 183 173 168 157 144 153 132 128 129 129 133 136 135 132 135 133 127 122 122 121 118 118 106 98 102 105 95 82
261 271 239 243 256 245 294 291 309 269 323 204 304 221 222 225 210 200 190 173 179 176 170 163 141 149 131 129 127 131 129 129 127 128 127 135 127 128 119 124 120 114 125 124 127 114 102 85 75